Wind_Speed
10 10 10 9 8 8 8 8 9 10 11 11 11 12 12 12 12 12 11 10 10 10 10 10 11 12 14 15 16 16 15 15 14 14 14 14 13 14 13 13 13 12 11 10 8 7 6 6 6 6 7 7 7 7 7 7 8 8 7 7 9 10 9 10 10 10 11 11 13 14 15 16 17 19 21 21 22 23 24 24 23 23 21 20 18 17 16 16
11 11 11 10 10 9 9 9 10 10 11 12 12 12 12 12 12 12 11 11 10 10 9 9 9 10 11 12 13 14 14 14 14 15 14 14 14 14 14 14 14 14 13 13 11 10 8 6 6 6 6 6 6 6 7 7 7 8 8 8 9 9 10 10 10 11 12 13 14 15 16 17 18 20 21 22 23 24 25 25 24 23 21 19 18 17 17 17
11 11 11 11 11 11 11 11 11 11 12 12 12 12 12 12 12 12 11 11 11 10 10 9 9 9 10 11 11 12 13 13 13 14 15 15 15 15 15 14 14 14 14 13 12 11 10 8 7 6 5 6 6 7 7 7 7 8 8 9 10 10 10 11 11 11 12 13 14 15 17 18 19 21 23 23 25 25 24 24 23 22 21 19 19 18 18 18
11 11 12 12 12 12 12 12 12 12 12 13 13 13 12 12 12 12 11 11 11 10 10 10 10 10 10 10 11 11 12 13 12 13 14 14 15 15 16 15 15 14 14 13 13 11 10 10 8 7 5 5 6 6 7 7 7 8 9 10 12 12 11 11 11 11 12 13 14 16 18 20 21 23 24 24 26 25 23 23 22 21 21 20 20 19 19 19
12 12 12 12 12 12 12 12 12 13 13 13 13 13 13 12 12 12 12 11 11 11 11 11 11 10 10 10 10 11 12 13 12 12 13 13 14 15 15 16 16 15 14 14 13 12 11 11 10 8 6 6 6 6 6 7 7 9 10 11 13 12 11 11 11 12 13 14 16 18 19 21 22 24 24 25 26 23 21 22 21 20 20 20 20 20 20 21
13 12 12 12 12 12 12 12 12 12 13 13 13 13 13 13 13 13 13 12 12 12 11 11 11 11 11 11 11 11 12 13 13 13 13 13 13 14 15 16 16 16 15 14 14 13 12 11 11 10 8 7 7 7 7 7 8 9 9 11 11 11 11 12 13 13 15 16 18 19 20 21 23 24 25 25 23 22 21 21 21 20 20 20 20 21 22 23
13 13 13 12 13 13 12 12 12 12 12 12 13 13 13 13 13 13 13 13 12 12 12 12 12 12 11 11 11 11 12 13 13 13 14 13 14 14 15 15 16 16 16 15 15 14 12 11 11 11 9 8 8 8 7 8 8 7 8 10 10 11 12 13 14 14 16 17 18 20 21 22 23 24 25 24 21 21 22 21 21 21 22 22 22 23 24 25
14 14 14 13 13 13 13 13 12 12 12 12 12 13 13 14 13 13 14 13 13 13 12 12 12 12 11 11 11 11 12 13 13 13 14 14 15 15 15 16 16 16 16 16 15 15 14 13 12 11 10 10 11 10 9 10 8 7 8 9 10 11 12 13 13 14 16 17 18 20 21 22 23 25 25 20 19 21 20 20 22 23 24 24 25 25 26 27
14 14 14 14 14 14 14 13 13 12 12 12 13 13 13 13 13 13 13 13 13 13 12 13 12 12 11 11 11 11 12 13 13 14 14 15 15 16 17 17 17 17 17 17 16 16 16 15 14 13 12 12 12 12 12 12 10 9 10 10 10 11 12 13 13 14 16 16 17 19 21 21 23 26 21 16 17 20 20 22 23 25 26 26 27 27 28 29
15 15 15 15 15 14 14 14 13 13 13 13 14 14 13 13 13 13 13 13 13 13 12 12 12 12 11 11 10 11 12 12 13 14 15 16 16 17 17 18 18 18 18 18 17 17 17 17 16 15 14 13 13 14 15 14 12 12 13 11 11 12 12 13 14 15 16 16 17 19 21 22 23 25 19 16 19 21 22 24 25 27 27 27 28 29 30 30
17 16 16 16 16 15 15 14 14 14 14 14 15 15 14 13 13 12 13 13 13 12 12 12 11 11 10 10 11 11 11 12 14 15 16 16 17 17 17 18 19 19 20 19 18 18 18 17 17 16 14 14 15 16 15 14 14 15 16 14 13 13 13 14 14 14 15 15 17 19 22 23 21 21 19 18 21 23 25 26 27 28 27 28 29 29 30 31
18 18 17 17 17 16 16 16 15 14 15 15 15 15 15 14 14 13 13 13 13 13 12 12 11 10 10 10 11 11 11 14 15 16 16 16 16 16 17 18 20 21 21 20 20 18 18 18 17 16 15 16 16 16 15 15 16 17 18 17 16 15 15 15 14 13 14 15 16 19 23 22 17 17 18 20 22 23 26 27 28 29 29 30 30 30 31 31
19 19 18 18 18 17 17 17 17 16 16 16 16 16 16 15 15 14 14 14 13 13 12 12 12 11 11 11 11 12 13 15 16 15 15 15 15 16 18 20 21 22 22 21 21 19 18 18 18 17 16 16 16 16 16 17 18 18 18 19 19 17 16 15 15 15 15 15 16 17 23 22 15 16 19 20 22 24 26 27 29 30 31 32 32 32 32 32
21 20 20 19 19 19 19 19 19 18 18 17 17 17 17 16 15 15 14 14 14 14 13 13 13 13 13 13 12 13 14 15 16 15 14 15 17 20 21 22 23 23 23 22 21 20 19 19 18 18 18 18 18 17 18 18 18 18 19 19 19 19 18 17 17 18 17 17 17 17 25 27 19 18 21 22 24 26 27 28 29 30 31 33 33 33 33 33
23 22 21 21 20 20 20 20 20 20 20 19 19 19 19 18 17 16 15 15 15 14 14 14 14 14 14 13 13 14 14 15 15 14 16 18 20 22 23 23 24 25 24 23 23 22 20 19 19 19 19 19 19 19 19 19 20 19 18 17 18 20 21 20 19 18 18 20 20 18 25 31 24 20 22 24 26 28 29 29 29 29 30 32 33 33 33 33
24 24 23 23 22 22 22 22 22 22 21 21 21 20 21 21 18 17 17 16 16 15 16 16 15 16 15 14 15 15 14 14 15 17 19 20 22 23 24 25 26 26 26 25 24 23 22 21 20 19 20 20 20 21 21 20 20 18 17 19 20 22 24 24 21 19 19 21 24 22 27 34 29 24 25 26 28 30 31 31 30 30 31 32 32 32 32 32
25 25 25 24 24 24 23 23 23 23 23 23 23 22 22 22 21 20 19 17 17 17 17 17 17 18 18 16 15 14 14 16 17 19 21 22 24 24 25 27 27 27 27 26 25 24 24 22 21 20 20 20 21 21 20 21 20 19 20 21 23 25 26 27 25 21 21 23 27 29 32 36 33 29 29 29 30 32 32 31 30 29 30 31 31 31 31 31
26 26 26 25 25 25 25 25 25 25 25 25 26 25 24 24 23 22 21 20 19 19 19 18 18 19 18 16 15 15 17 18 19 21 23 24 24 25 26 28 28 28 28 27 26 25 24 24 23 21 21 21 21 21 20 20 21 23 23 24 25 27 28 30 27 24 23 25 28 32 34 36 35 33 32 32 33 34 33 32 29 27 27 28 30 30 30 30
28 27 27 27 26 26 26 27 27 26 26 26 27 27 27 27 26 25 24 23 22 21 21 19 19 21 19 18 19 19 20 21 22 23 24 25 26 27 27 28 28 28 28 27 26 25 24 25 24 24 23 22 22 22 21 22 24 25 25 26 27 28 30 31 28 26 25 27 31 34 35 37 37 35 34 35 35 36 35 33 28 25 25 26 28 29 29 30
29 28 28 28 27 27 27 27 28 28 28 28 28 28 29 29 29 28 27 26 26 25 23 22 23 24 23 22 22 22 23 24 24 25 26 27 28 28 27 27 27 27 26 25 25 24 23 26 27 25 24 23 24 23 23 25 26 26 27 28 28 30 32 30 28 29 28 30 34 34 35 38 40 38 34 35 37 36 33 30 25 22 23 24 25 27 28 29
31 30 29 29 28 28 28 28 28 28 28 29 30 30 30 31 31 31 31 29 28 27 26 25 26 27 26 25 24 24 25 25 27 27 27 28 27 27 27 26 25 25 23 22 22 22 23 27 25 23 24 26 25 24 26 27 27 27 28 28 30 32 34 31 28 30 29 32 35 35 38 43 43 40 37 35 33 28 24 23 21 21 23 24 24 23 25 27
32 31 31 30 30 29 29 28 28 28 28 29 31 31 31 31 32 33 35 35 32 29 29 29 29 29 29 27 26 26 27 27 28 28 28 29 28 27 26 24 23 22 20 20 21 22 24 26 23 22 26 26 26 27 28 28 27 27 28 29 32 33 34 32 28 29 30 32 37 38 42 48 44 43 39 29 23 23 22 20 18 21 24 23 22 20 22 25
33 33 33 32 31 30 30 29 29 28 28 29 31 32 32 32 33 34 36 38 38 35 33 33 33 32 30 29 29 30 31 31 31 30 31 31 28 25 23 22 21 19 19 20 21 23 25 24 21 22 25 27 28 29 30 29 27 28 29 31 33 33 32 33 31 30 30 32 38 39 46 53 46 41 32 19 21 28 23 19 18 22 24 22 19 18 22 26
33 33 33 33 31 31 32 31 30 29 29 30 30 31 32 33 33 35 36 39 41 40 38 37 36 35 33 32 33 34 34 34 34 32 31 28 24 21 20 19 20 20 20 21 23 26 26 24 25 26 27 29 30 31 31 28 27 29 30 32 34 32 30 32 32 31 32 33 35 36 46 50 33 21 23 25 32 29 18 16 18 20 22 20 19 21 25 28
35 34 34 33 32 32 32 32 31 30 31 31 31 31 32 33 34 35 36 37 40 41 40 39 38 36 34 33 34 35 34 33 32 30 27 24 21 20 20 19 21 22 21 23 26 28 26 25 27 29 30 31 31 32 31 28 30 31 31 31 33 31 29 30 30 31 32 29 26 23 26 27 11 9 29 39 33 24 17 15 14 16 18 18 21 25 27 27
37 36 36 35 34 33 34 34 33 31 32 32 32 32 32 33 33 33 34 34 35 39 40 38 35 33 32 32 31 31 30 28 24 22 22 20 20 21 22 21 23 24 24 25 26 28 27 26 28 29 31 31 31 34 33 30 31 32 31 31 30 30 30 30 29 31 28 24 24 21 17 22 21 27 43 37 20 21 21 14 12 14 15 19 24 24 24 26
38 38 36 36 36 34 35 36 34 34 34 33 33 33 33 34 33 33 31 24 23 31 32 30 28 27 27 26 25 24 24 22 20 20 21 21 23 24 24 24 25 26 26 25 25 27 28 27 27 29 30 31 33 35 34 31 30 31 32 30 30 31 31 32 31 29 31 33 35 32 27 29 33 36 35 21 15 24 19 12 14 14 18 26 25 21 25 28
40 39 38 37 36 35 35 36 36 36 35 35 36 35 35 34 33 32 23 10 10 16 18 21 23 23 21 19 19 21 23 23 24 24 24 25 27 27 27 28 27 27 27 28 30 30 31 31 31 30 30 32 35 37 35 32 31 32 32 30 30 31 30 32 31 29 34 34 32 33 25 19 27 33 23 15 18 19 13 14 15 15 26 29 21 24 31 30
39 40 39 38 37 36 35 35 36 35 35 36 36 36 37 35 33 28 15 8 11 14 15 21 24 24 22 21 22 23 25 25 26 27 28 29 30 29 29 28 28 29 30 32 36 35 33 35 35 34 35 36 37 38 37 35 33 32 32 30 29 29 30 31 30 31 31 24 27 37 26 14 20 29 19 13 14 15 17 18 15 20 30 25 21 30 32 28
39 39 39 38 38 37 36 36 35 34 34 35 34 36 35 34 31 20 11 11 14 14 16 18 23 25 25 24 25 25 26 27 27 29 29 30 30 30 30 29 30 31 32 34 36 37 37 39 39 39 38 38 39 39 39 36 33 33 32 29 28 28 30 29 28 28 21 15 27 35 25 16 12 15 14 13 16 24 24 17 18 27 29 23 27 33 28 25
40 40 39 38 37 37 37 36 34 34 33 32 33 33 32 32 28 16 9 16 20 19 22 22 25 28 28 27 27 27 28 29 29 29 30 31 31 32 32 31 31 32 33 37 38 39 40 41 41 40 38 38 39 39 38 35 33 32 30 28 25 20 19 18 17 15 7 9 21 19 13 17 16 17 24 26 30 30 22 18 24 29 25 26 32 31 25 24
41 41 41 39 37 36 37 36 34 34 34 32 30 31 31 27 26 25 20 18 14 13 19 22 24 26 25 27 29 28 29 29 29 28 30 32 34 36 34 33 33 29 29 35 37 37 41 42 39 37 37 37 37 37 36 34 33 33 31 26 17 7 7 7 4 4 7 13 20 15 9 16 29 41 43 35 29 23 22 28 27 24 25 31 34 30 26 23
43 43 42 40 39 38 37 35 34 34 34 33 29 30 30 21 21 31 32 23 15 12 13 15 17 20 23 28 30 28 28 29 29 28 30 33 36 38 35 35 35 30 29 33 30 27 32 36 36 34 34 34 34 34 33 31 28 27 27 24 14 3 2 4 4 4 9 17 20 15 13 17 30 42 36 21 18 23 31 31 21 23 29 32 34 31 25 23
44 44 43 42 41 39 38 36 35 36 34 33 31 29 30 26 24 29 33 32 29 26 24 21 20 22 25 29 29 27 28 29 29 30 31 34 37 39 38 38 37 35 36 34 29 24 23 27 30 29 27 27 27 26 24 24 24 22 20 20 19 14 8 6 5 4 7 16 15 8 8 13 19 25 23 21 29 32 29 23 19 27 30 31 35 29 22 24
45 45 44 43 42 41 40 37 38 38 35 34 33 32 38 39 35 35 38 39 35 34 33 31 30 29 30 32 31 30 29 28 30 31 32 36 38 39 40 38 36 37 36 32 29 27 25 30 34 29 25 25 24 23 22 23 24 23 21 22 24 25 22 15 14 17 12 14 14 11 17 29 32 35 37 34 33 27 21 21 23 29 31 34 34 26 24 29
44 45 45 44 43 41 38 38 39 38 37 36 35 41 52 52 45 43 43 39 35 35 34 33 34 34 35 36 36 36 32 32 34 32 33 37 39 42 42 39 37 37 37 35 31 25 22 27 29 24 22 23 22 24 25 24 22 22 24 27 27 25 24 20 17 21 12 8 16 17 23 38 37 36 39 27 21 24 23 22 25 30 35 37 34 30 33 36
43 44 45 45 43 39 36 38 39 39 39 38 41 52 59 56 52 50 46 41 37 34 31 33 34 33 33 34 35 34 31 33 36 35 35 35 36 42 43 39 38 37 37 37 36 32 28 31 34 30 27 28 28 26 26 28 26 26 25 26 24 19 20 18 8 7 4 3 15 20 25 33 23 22 32 24 19 24 20 19 27 36 40 40 38 40 41 41
43 44 46 46 42 39 36 36 39 42 41 42 50 59 59 56 55 52 49 47 42 36 35 37 36 34 34 33 33 30 27 31 35 35 37 36 36 40 38 34 35 35 32 32 35 36 33 32 37 39 35 34 34 29 27 28 30 33 31 25 20 14 15 17 10 4 4 2 9 20 30 33 25 25 35 31 25 21 17 24 37 43 46 44 45 48 44 43
45 48 50 47 42 40 37 36 39 42 43 49 57 61 60 58 57 52 49 47 44 41 42 44 42 39 39 38 35 32 31 35 38 37 37 36 37 41 38 33 33 31 28 29 35 38 35 28 27 36 39 35 32 31 33 35 35 37 34 29 27 22 17 18 16 9 5 3 8 15 21 27 26 26 31 30 26 23 25 38 46 48 50 49 51 51 44 43
48 50 53 50 45 42 38 35 39 44 49 56 61 62 61 57 54 52 49 47 45 45 45 47 46 43 43 43 40 39 37 37 38 38 38 38 39 40 39 36 35 33 29 27 32 36 37 32 28 36 39 34 36 40 43 42 37 36 36 34 34 31 23 18 21 23 14 3 4 4 11 31 33 26 33 36 32 32 37 45 49 51 53 53 54 50 43 44
50 51 55 53 48 46 40 37 42 48 54 60 62 62 60 56 54 53 49 46 46 46 46 46 45 45 46 46 45 44 40 38 39 38 40 43 43 41 41 38 35 33 29 28 32 34 36 36 36 41 42 43 49 50 45 39 34 33 34 36 37 36 30 15 12 27 29 18 14 5 7 42 53 41 46 50 42 43 45 48 54 55 55 56 54 49 45 47
51 54 56 53 49 47 43 42 46 50 56 61 62 62 59 56 56 54 51 48 46 45 46 46 48 49 49 48 48 45 42 40 42 42 43 46 46 46 44 40 35 31 28 28 31 33 34 36 38 43 47 50 50 45 38 33 32 31 32 36 36 35 37 26 15 24 31 30 29 10 3 44 68 55 53 53 47 49 50 54 60 58 56 56 51 47 47 47
55 57 55 54 53 50 44 43 47 51 56 59 58 59 58 56 57 55 53 51 48 48 48 49 52 51 50 49 47 45 45 44 46 48 47 48 50 49 46 42 39 34 28 27 29 30 32 36 37 40 44 47 45 42 39 33 29 32 37 41 40 40 45 43 35 31 25 26 26 6 3 45 69 58 53 53 49 52 57 61 63 59 56 54 48 46 47 47
56 57 57 57 55 52 49 52 54 56 58 57 57 58 57 56 57 57 57 55 53 53 53 53 53 50 48 48 47 48 47 43 45 48 46 47 50 49 44 42 40 37 34 33 33 31 32 37 36 27 23 26 29 28 29 32 34 38 43 44 45 47 47 44 43 33 23 29 26 9 12 52 66 56 52 52 52 57 63 64 63 61 57 52 47 46 47 49
56 55 55 55 53 52 55 58 58 57 57 58 59 60 57 56 56 56 57 58 57 56 53 50 48 46 47 46 45 47 48 46 45 44 44 47 49 48 45 41 39 40 40 39 38 35 34 38 38 28 16 13 17 19 24 34 39 43 49 48 48 51 48 47 44 30 23 32 31 23 35 60 66 60 58 58 59 63 66 65 64 62 57 51 48 48 49 51
61 57 53 51 51 52 57 58 54 55 56 55 57 58 57 57 57 57 56 58 58 55 51 49 47 45 45 44 44 47 49 48 46 46 50 52 49 46 44 39 38 39 39 40 43 42 40 41 45 46 41 37 39 41 39 36 34 37 42 44 46 48 49 52 47 35 34 35 36 48 59 59 63 70 65 62 63 65 67 66 62 59 54 51 51 51 51 52
63 62 60 55 49 47 53 58 56 56 56 54 56 58 60 60 59 58 58 59 58 54 51 51 50 47 46 46 45 47 48 46 46 50 56 56 52 48 44 39 38 37 36 39 42 44 45 46 49 53 55 54 55 54 49 43 40 41 41 42 46 44 45 54 52 47 48 35 33 58 64 53 65 76 64 60 65 67 67 63 59 56 53 52 53 52 51 51
64 64 65 62 55 52 56 60 60 59 58 58 59 59 60 61 60 61 61 59 57 52 48 50 54 54 54 49 43 42 44 44 48 55 57 56 53 50 47 44 41 37 34 35 39 43 46 49 52 54 54 55 56 55 53 51 49 49 48 50 54 49 46 53 55 57 57 45 44 62 62 58 73 74 62 63 68 66 63 60 57 54 50 49 49 48 48 48
66 65 64 64 64 64 64 63 59 55 55 58 61 61 60 61 62 62 60 57 56 54 52 55 59 59 56 51 47 46 46 47 52 56 55 54 51 49 48 46 43 40 36 34 37 40 45 50 52 51 51 54 57 57 54 52 52 53 53 57 61 55 50 53 57 62 62 57 60 67 64 69 78 72 66 68 66 62 59 55 52 49 46 46 46 45 45 44
64 64 63 64 66 65 65 64 59 54 53 54 57 57 56 57 58 58 58 58 58 58 58 60 62 59 53 48 48 51 53 54 56 56 53 48 43 42 43 42 42 42 42 41 39 38 43 48 49 48 48 51 57 57 52 51 52 51 53 62 65 57 53 60 67 66 60 58 65 67 67 75 79 72 68 67 61 58 55 50 47 45 43 43 42 42 42 41
60 62 64 65 68 68 66 66 65 61 57 55 57 57 56 56 57 55 56 57 58 59 59 59 60 56 49 46 48 54 58 57 55 54 53 50 43 40 40 40 39 40 43 44 40 38 42 45 47 47 43 46 54 51 46 48 47 46 57 69 67 59 60 67 70 65 60 62 65 63 66 75 76 69 65 63 60 58 53 47 44 42 40 40 41 42 42 41
55 61 66 66 66 65 64 65 64 62 61 62 64 64 61 60 58 54 54 56 58 59 58 58 58 55 51 52 55 58 58 55 52 50 49 50 50 47 46 45 41 40 41 42 41 43 46 47 50 47 38 42 50 47 43 37 27 34 58 70 66 64 68 71 68 66 67 68 64 63 69 76 74 66 62 62 60 54 48 44 42 41 41 41 44 45 44 42
Wind_Direction
268 273 277 282 288 294 301 308 315 321 324 327 330 333 335 337 339 341 344 346 346 347 355 3 4 6 11 14 15 17 18 16 14 14 15 13 13 14 14 14 11 7 7 9 9 2 350 337 336 337 333 324 317 315 310 307 307 307 302 298 304 301 294 294 293 288 287 287 290 294 293 292 293 294 296 297 300 304 305 307 310 311 310 309 307 303 299 299
267 271 276 280 285 291 298 303 309 314 318 322 323 326 329 330 332 333 334 337 340 339 339 344 351 355 358 1 5 7 7 9 11 12 11 9 11 11 10 12 11 8 9 12 16 16 12 5 356 344 333 325 318 314 312 310 306 305 297 295 300 295 291 291 292 291 287 287 290 291 291 292 294 294 294 296 299 301 301 305 307 306 305 304 302 299 296 295
264 268 273 278 283 288 294 299 304 308 312 316 319 321 323 325 326 326 328 329 331 333 332 332 334 338 342 347 351 354 354 357 4 6 4 5 7 7 6 7 7 6 7 10 13 15 18 16 7 355 337 324 320 316 314 310 305 303 295 293 294 289 289 291 293 294 289 288 289 289 290 292 295 294 293 295 296 294 297 302 302 301 301 300 299 297 295 294
260 264 269 274 279 284 290 295 299 303 307 310 313 315 317 320 321 320 321 321 321 324 326 326 325 325 328 330 335 340 340 341 350 355 355 358 1 1 1 1 1 1 2 5 7 9 15 16 11 6 353 334 327 323 317 310 304 302 298 294 291 292 294 295 297 296 293 291 291 290 290 292 293 291 291 292 291 291 296 297 296 298 300 300 299 298 298 299
258 261 264 268 273 278 285 290 296 300 303 306 308 311 312 315 317 316 315 315 315 315 316 318 319 319 318 319 321 325 328 331 337 340 341 345 349 351 352 354 355 354 354 357 357 0 7 8 6 4 358 349 344 335 323 317 310 303 300 295 293 296 297 297 297 295 293 291 290 290 289 291 290 289 291 289 288 292 295 293 293 296 297 298 297 296 298 300
257 259 262 264 268 274 280 287 293 298 301 304 306 308 309 310 312 312 311 310 309 308 309 309 310 312 311 313 312 313 316 319 324 325 325 329 334 337 338 342 346 346 347 346 345 349 356 357 355 353 351 350 351 342 328 323 315 304 299 298 299 297 295 297 297 295 294 291 292 291 291 292 291 292 291 290 294 297 295 294 295 295 295 294 293 292 294 295
256 259 261 263 266 271 276 283 289 295 299 302 304 306 307 309 310 309 308 307 306 304 304 303 304 305 305 307 307 308 308 308 310 311 313 317 321 325 326 328 333 335 337 338 337 338 338 341 342 338 339 339 339 338 330 327 319 305 305 307 305 299 298 299 299 299 297 295 294 293 293 293 294 293 291 293 300 298 295 296 295 293 292 289 289 289 290 290
257 259 260 263 265 269 273 279 285 290 295 297 300 302 304 306 307 307 305 303 303 301 299 299 300 300 303 304 305 307 304 305 305 305 307 309 312 316 317 318 321 324 326 327 328 329 327 328 327 325 328 326 323 324 321 325 320 310 315 313 307 303 303 301 300 299 296 296 294 292 293 294 295 292 293 302 304 298 296 294 290 289 288 287 288 288 287 286
259 260 261 263 266 269 273 277 283 287 292 294 295 297 299 302 305 304 302 301 300 298 296 296 295 297 300 302 305 305 304 306 306 304 305 306 307 309 311 311 312 315 316 317 318 321 323 323 322 320 320 317 315 315 313 315 312 309 314 313 307 303 304 304 304 300 296 295 293 292 292 293 293 291 300 318 306 296 292 288 287 287 287 287 287 287 286 285
259 261 262 264 266 269 273 277 281 287 291 294 294 295 296 297 299 299 297 297 296 295 295 293 292 295 297 301 305 304 306 310 308 306 305 304 304 304 306 306 307 309 309 310 310 313 317 322 323 318 316 315 312 311 311 310 303 303 306 307 307 303 303 306 305 300 296 295 293 292 291 291 291 292 309 323 302 294 290 288 288 288 289 289 287 286 285 285
259 261 262 264 265 267 270 274 279 286 291 295 296 295 295 295 295 295 292 291 292 292 292 290 290 291 294 302 307 307 311 313 310 308 305 303 302 302 303 303 305 305 304 305 305 306 310 316 320 319 317 316 311 309 309 306 299 299 300 300 301 301 304 307 304 297 294 293 290 289 289 291 295 302 315 312 301 298 296 294 294 293 292 290 288 287 285 285
260 262 263 264 266 266 268 271 275 281 289 294 296 295 294 293 291 289 287 286 286 285 286 286 285 287 291 299 304 306 308 310 309 309 307 304 303 303 303 304 304 302 300 299 300 300 303 310 316 318 317 314 312 309 306 304 300 297 297 297 294 293 296 300 303 298 296 294 288 288 291 293 302 312 312 303 301 302 300 300 299 298 297 294 292 290 289 288
262 263 264 266 267 268 268 269 272 276 283 290 295 296 294 292 290 287 284 281 281 280 279 279 280 283 288 292 298 301 302 305 307 307 307 305 305 306 306 304 302 300 298 295 296 296 297 302 308 313 315 314 313 308 302 302 301 297 296 296 293 290 288 291 300 303 303 298 291 289 289 296 313 314 307 304 302 300 298 299 299 298 298 296 295 294 293 291
263 264 265 267 267 269 269 270 271 273 277 284 292 295 294 292 289 286 281 279 277 276 274 274 274 278 284 290 295 297 297 301 306 306 305 305 305 306 305 302 300 299 296 292 291 291 292 294 300 307 311 313 312 307 302 301 300 298 295 295 294 292 289 292 300 304 306 302 296 289 285 294 314 315 308 306 301 298 297 296 296 296 297 296 295 295 294 292
263 264 265 266 267 268 269 269 270 272 274 279 286 292 292 291 290 288 283 279 277 275 273 272 272 276 280 286 292 294 294 300 306 308 307 306 305 304 302 300 298 296 294 289 287 286 285 286 292 300 305 311 311 306 303 301 300 299 295 294 294 292 291 293 296 298 302 300 296 291 284 291 308 316 309 303 298 298 296 296 296 296 296 294 293 293 292 291
264 264 264 265 266 267 269 270 270 271 272 275 279 285 289 288 288 287 284 281 279 276 275 273 274 276 278 282 288 291 294 301 306 308 308 307 305 303 301 298 295 293 291 287 283 281 280 281 285 291 299 306 307 306 305 301 300 299 295 295 294 293 292 292 293 295 297 295 292 290 285 289 301 311 306 302 300 299 298 299 300 299 297 294 293 293 292 291
266 267 267 267 268 268 269 270 271 272 272 273 274 278 283 284 285 285 285 283 279 277 276 276 276 276 278 283 286 289 294 301 305 305 306 305 304 302 299 296 293 290 288 284 281 278 276 277 278 284 293 299 303 306 304 299 299 299 296 294 294 295 293 291 292 296 295 292 290 288 285 290 300 305 303 304 303 300 299 300 300 299 297 297 296 295 294 292
267 269 270 271 272 272 272 272 273 273 273 274 274 275 276 279 280 280 280 279 279 279 277 277 277 277 279 281 284 290 295 298 300 302 304 304 303 300 298 294 291 288 285 282 279 276 274 274 275 278 285 292 298 302 300 297 297 298 296 293 294 295 293 292 293 296 294 289 286 284 284 290 299 302 303 304 302 299 298 297 297 295 294 296 295 294 292 289
267 270 272 273 274 275 275 275 275 274 274 275 275 276 276 276 276 277 278 277 278 279 279 279 277 277 280 281 285 290 292 294 295 298 301 302 301 297 295 291 288 285 282 279 277 273 272 272 272 274 281 288 292 297 299 297 295 294 293 291 293 294 294 296 298 297 294 287 284 285 285 288 294 300 304 304 300 298 296 294 293 291 290 293 292 290 288 286
266 269 271 273 275 276 277 278 278 277 276 275 275 275 275 275 275 275 274 276 278 278 277 278 279 279 281 283 285 287 289 290 292 295 299 300 298 293 289 288 286 282 281 279 274 272 271 269 272 275 278 283 287 293 300 300 296 293 290 289 293 293 295 301 302 297 294 289 288 290 288 287 292 299 306 304 300 299 297 292 288 285 287 291 289 287 286 286
265 267 269 271 273 275 277 277 279 279 279 278 276 275 275 275 276 275 272 271 274 277 277 277 280 281 282 284 285 286 287 287 290 294 296 297 294 288 286 286 282 279 280 277 271 270 268 269 279 281 276 280 284 289 298 300 297 292 288 290 293 294 297 302 299 293 294 291 290 293 290 288 293 299 305 305 299 301 298 288 283 282 287 291 291 289 287 286
264 266 267 269 271 273 274 276 277 278 278 279 277 277 277 277 277 277 276 273 269 272 276 277 280 281 282 283 284 284 284 286 289 291 291 293 291 285 282 281 278 277 275 270 267 266 265 274 288 282 273 278 280 286 295 297 294 291 288 289 291 295 300 300 296 294 294 291 293 295 290 290 295 299 304 303 296 305 303 289 286 287 290 294 292 288 287 287
266 266 268 269 270 271 273 274 275 276 276 277 277 278 279 279 279 278 280 278 272 269 272 276 278 280 281 282 282 281 281 284 285 285 288 289 285 279 276 276 272 270 269 268 267 263 264 278 288 277 274 278 279 284 292 292 292 291 286 286 290 297 300 297 296 294 290 291 294 295 293 294 297 299 302 301 301 310 304 293 298 293 292 292 285 288 295 296
265 266 268 269 270 271 272 273 274 274 274 275 276 277 278 279 280 279 280 281 277 272 272 275 277 278 280 280 279 278 278 280 281 283 285 283 277 272 273 274 267 268 272 269 265 262 267 277 279 277 277 277 278 283 287 290 292 290 285 285 290 296 295 292 294 292 289 291 291 297 300 297 298 299 299 304 308 309 295 289 303 297 291 287 283 296 305 302
262 264 266 268 269 270 272 273 273 274 275 276 276 278 279 279 280 281 282 284 281 276 274 276 278 278 279 277 275 274 274 276 278 279 278 273 270 270 273 271 268 273 276 270 263 262 269 274 273 276 276 274 277 280 283 289 292 290 286 286 289 294 292 289 292 293 295 295 289 304 311 299 288 268 293 304 306 304 297 292 302 297 288 286 293 304 308 305
263 263 264 266 267 268 270 271 272 273 274 275 277 278 279 280 281 282 284 286 282 278 278 279 279 277 276 275 272 270 268 270 271 270 271 268 267 274 274 269 271 276 276 272 263 260 270 274 272 275 275 273 275 277 281 289 293 290 285 285 287 291 291 289 290 292 295 292 287 295 294 284 276 274 292 302 297 303 307 297 303 299 291 297 303 309 312 309
264 264 264 265 265 265 266 268 270 271 272 274 276 277 278 280 281 283 288 290 282 280 279 276 276 276 274 273 270 261 258 263 266 270 275 271 271 276 274 271 276 278 276 268 257 262 276 278 275 277 275 272 273 278 284 290 291 286 283 285 285 288 289 288 290 289 289 289 288 288 280 276 278 283 296 300 293 310 306 291 306 303 306 312 311 315 318 314
264 264 265 265 265 266 266 268 269 269 270 272 273 275 277 277 279 281 283 282 276 282 275 266 270 273 269 266 259 252 255 265 269 272 276 272 272 273 271 274 279 277 275 265 259 270 279 275 273 273 271 272 276 280 285 287 287 283 281 281 281 286 286 285 288 286 290 293 289 285 275 266 277 285 296 294 299 314 300 290 301 300 315 318 312 320 320 315
264 264 264 264 265 266 267 267 269 269 269 270 270 273 273 275 277 275 267 250 264 272 263 261 265 266 264 258 252 252 259 264 266 270 272 269 268 268 267 272 273 269 267 262 263 271 273 270 270 269 269 273 277 278 281 285 285 281 279 278 280 284 283 283 285 285 291 290 278 279 270 249 277 284 282 285 299 312 305 297 287 301 319 317 312 322 321 313
264 264 264 264 264 265 265 266 268 270 269 268 269 270 271 272 269 260 242 245 259 263 256 256 260 263 264 258 253 256 258 258 260 264 266 262 262 262 262 265 265 262 261 259 264 269 269 268 267 266 269 273 275 276 279 283 282 278 276 276 280 283 282 281 280 283 291 277 271 279 268 243 267 288 276 279 302 310 306 293 288 309 320 316 318 326 322 313
264 264 264 264 264 264 264 264 265 268 268 267 267 268 268 267 259 237 227 255 260 260 255 253 258 263 266 262 257 256 253 252 255 257 258 258 257 255 256 259 258 256 255 255 262 267 268 267 266 267 270 271 273 275 277 278 275 273 270 272 280 285 285 282 274 272 271 266 275 282 265 234 232 263 277 285 298 303 302 298 303 314 321 320 327 331 322 315
263 263 264 264 264 265 264 264 265 265 267 266 265 263 261 258 245 228 230 252 260 256 250 250 254 256 260 259 254 251 247 248 252 253 255 256 253 251 254 258 256 251 250 256 262 266 267 267 266 267 268 268 270 271 272 271 267 264 262 265 273 295 309 283 257 253 233 257 272 274 273 243 243 267 281 286 291 296 306 310 309 315 323 327 333 332 321 313
262 262 262 262 263 263 263 264 263 262 264 263 260 257 252 247 239 234 234 237 240 246 247 246 247 247 249 250 249 248 247 250 255 254 254 253 250 251 252 252 250 245 248 258 262 265 270 269 265 263 265 266 265 264 265 268 266 260 255 252 240 176 27 270 258 281 259 267 269 262 276 264 263 280 289 288 293 303 308 307 307 316 324 330 334 331 320 311
262 261 261 261 261 261 260 260 260 260 260 257 254 250 240 234 240 242 241 242 244 251 254 251 250 248 246 246 248 251 252 257 260 255 253 250 248 250 249 247 245 242 245 252 257 260 266 268 266 263 264 267 266 264 262 262 261 257 250 242 231 215 205 226 248 242 270 293 283 237 242 259 271 286 287 289 298 303 303 298 305 316 321 329 331 327 318 311
262 261 261 261 260 259 258 256 256 257 254 251 248 242 233 233 239 243 246 249 248 250 252 252 253 251 250 251 252 256 256 259 261 257 253 252 251 255 254 250 246 242 240 242 251 256 256 262 269 268 265 267 267 265 258 249 247 250 242 230 232 234 231 236 254 258 278 309 286 229 237 261 272 278 280 287 296 298 296 294 303 312 316 324 327 322 316 314
264 262 261 260 259 259 257 254 254 253 250 247 240 237 240 243 246 248 252 254 251 250 251 251 251 249 251 254 254 255 254 256 259 256 254 255 256 257 255 253 249 244 243 244 248 252 255 265 272 271 267 266 264 262 255 243 239 241 235 232 238 241 237 238 255 270 279 295 275 254 257 270 276 282 283 285 290 294 293 292 300 308 312 316 320 318 315 314
266 264 262 260 259 258 256 254 253 251 247 241 237 242 248 251 252 253 255 254 251 251 250 248 249 248 249 252 253 254 252 252 253 251 252 255 258 259 257 255 253 249 252 254 250 250 255 264 270 271 271 270 267 260 249 239 235 232 232 239 243 237 235 233 242 291 280 255 274 266 268 276 274 280 286 285 289 293 286 288 301 306 307 309 313 316 314 313
270 267 263 261 260 259 257 254 252 250 245 238 240 247 251 253 254 255 254 253 252 252 249 246 248 251 252 252 253 254 248 245 247 247 250 251 254 261 260 257 259 259 260 256 247 247 249 256 267 269 270 273 268 253 238 234 230 229 235 240 235 225 225 219 205 261 256 194 279 274 278 278 262 264 282 286 289 287 278 291 303 305 303 304 311 316 312 311
267 267 265 263 262 259 256 252 252 249 241 237 241 247 250 252 255 254 253 253 253 251 248 249 251 251 252 253 254 254 248 247 249 246 246 248 253 260 261 260 262 263 261 250 242 243 242 243 260 266 267 269 260 243 236 235 227 224 231 233 233 234 228 219 213 223 225 197 267 282 289 281 265 267 282 286 284 278 281 295 303 306 303 303 312 315 311 309
264 264 264 264 261 259 256 252 249 246 240 240 244 247 249 251 253 253 254 254 253 251 251 253 252 249 252 255 255 255 250 249 249 245 245 249 252 258 262 261 261 262 261 247 238 239 236 234 247 258 261 257 250 251 252 250 240 230 228 229 232 230 225 231 234 231 228 217 262 279 285 276 272 277 284 284 282 279 285 297 304 306 306 305 311 314 310 309
261 260 263 264 262 260 257 249 246 244 242 244 246 246 247 250 254 256 256 254 252 251 251 252 251 250 254 256 256 256 251 248 248 245 245 249 250 255 261 263 263 263 256 241 235 235 230 229 236 245 251 253 256 260 260 257 252 246 242 243 243 236 228 229 241 239 234 230 237 207 269 273 273 277 281 282 283 284 290 300 304 305 307 308 310 312 311 309
257 257 262 266 264 262 256 250 251 249 244 246 248 247 248 252 254 255 254 252 250 249 248 250 252 252 254 256 256 256 252 249 250 248 248 252 254 258 263 265 264 261 255 247 246 243 235 231 234 240 249 256 260 260 256 252 248 244 246 247 248 244 234 224 224 239 235 231 240 230 248 271 273 277 280 281 284 288 294 301 303 304 307 309 310 310 310 309
253 257 262 264 264 261 253 247 249 246 245 248 249 249 250 252 254 255 255 253 250 248 248 251 255 253 252 253 253 253 253 252 253 253 253 256 261 264 265 263 259 257 253 246 244 240 231 228 233 242 250 254 256 256 254 250 241 235 240 241 240 243 242 238 235 239 239 235 235 199 222 265 271 276 278 280 285 289 295 300 300 302 305 308 308 308 307 307
257 258 259 259 258 254 249 248 248 245 246 248 248 247 248 250 253 255 255 255 253 253 252 254 254 251 252 254 253 254 254 252 254 257 257 259 264 267 264 257 253 252 248 245 244 238 229 227 231 240 254 256 255 256 250 242 236 235 240 241 241 245 247 244 239 237 246 246 232 178 239 260 268 274 275 278 284 288 295 299 298 300 303 304 305 305 304 304
259 251 250 253 253 249 249 252 252 249 248 249 248 249 249 251 253 255 257 258 257 255 253 252 252 251 254 256 254 255 254 251 254 258 259 260 264 266 263 256 253 252 251 251 251 244 238 237 235 230 230 238 243 244 243 243 240 236 239 243 246 248 245 241 239 230 235 244 231 219 244 258 268 274 273 276 283 289 296 298 296 299 301 301 302 302 301 301
256 246 242 246 247 246 250 252 249 246 247 246 246 247 249 252 254 256 256 256 255 252 249 250 252 253 254 253 251 253 253 252 253 255 259 261 261 263 263 259 257 256 254 252 249 245 244 245 243 238 236 239 245 251 255 255 249 241 245 250 252 253 248 243 239 230 233 240 236 239 249 258 269 273 273 277 285 291 295 297 298 300 301 300 299 298 298 299
252 247 245 245 241 240 246 248 244 242 243 241 241 245 249 251 253 254 253 254 254 252 250 252 253 250 250 250 248 251 253 252 252 254 258 261 260 260 262 260 259 258 254 248 244 243 244 245 245 244 243 246 251 256 259 261 259 256 259 261 259 258 252 242 239 241 243 239 240 251 254 257 267 272 275 279 285 290 294 297 299 300 299 297 296 296 296 297
250 251 252 250 245 241 245 250 250 247 244 242 243 245 246 248 251 252 252 253 254 252 250 252 253 253 253 250 244 246 250 251 252 254 258 260 259 257 257 257 258 257 251 245 242 242 241 242 245 246 247 248 251 255 257 258 261 261 263 265 263 261 253 245 246 253 250 238 244 259 261 260 267 273 276 281 285 289 294 297 297 296 296 295 296 296 294 294
250 250 251 249 247 247 250 255 257 255 252 249 244 243 246 249 251 253 253 252 253 253 253 254 258 260 257 250 243 242 247 251 254 257 260 259 256 254 254 255 256 255 250 246 244 241 238 241 244 247 249 251 252 255 256 256 258 259 260 263 263 259 256 254 257 260 255 248 254 262 264 265 270 273 275 282 289 290 293 296 293 292 295 294 295 295 292 292
252 253 255 252 248 249 250 251 250 250 252 249 242 243 248 249 251 252 252 252 253 255 255 257 263 264 259 254 249 247 253 258 259 262 263 260 255 254 255 257 259 260 255 249 245 240 239 244 248 250 252 255 256 257 257 255 256 258 259 261 260 256 255 257 257 258 256 253 257 261 261 264 272 278 279 284 290 291 291 292 291 292 295 293 292 290 289 289
259 262 264 257 251 249 249 249 246 244 245 242 241 246 249 249 253 254 250 251 254 255 257 260 266 266 262 259 256 257 265 267 264 265 265 260 257 259 262 263 266 266 259 252 249 247 246 249 251 251 252 255 257 258 257 256 257 257 257 258 255 251 252 254 255 256 254 254 258 259 257 263 276 286 286 286 289 291 291 292 293 295 294 289 286 283 283 284
257 257 256 252 249 249 248 247 244 240 242 244 247 252 253 254 260 256 247 250 256 256 257 260 264 265 261 259 262 269 277 277 273 272 267 259 258 260 260 262 263 262 258 255 257 259 256 252 250 248 247 252 256 257 256 255 255 252 253 255 255 252 252 254 255 256 257 257 256 256 260 270 281 286 286 287 291 292 294 295 296 294 289 283 280 280 280 280
Height
3196 3196 3196 3196 3196 3196 3195 3195 3195 3194 3193 3193 3193 3192 3191 3191 3190 3190 3189 3188 3188 3187 3187 3186 3185 3185 3184 3183 3182 3181 3181 3180 3179 3178 3177 3177 3176 3175 3174 3173 3172 3171 3170 3169 3168 3167 3166 3165 3164 3163 3163 3163 3162 3162 3162 3162 3162 3161 3161 3161 3160 3160 3159 3159 3158 3158 3157 3157 3157 3156 3156 3156 3155 3154 3153 3153 3152 3152 3151 3151 3150 3150 3149 3149 3149 3148 3148 3147
3196 3196 3196 3196 3196 3195 3195 3195 3194 3194 3193 3192 3192 3192 3191 3190 3190 3190 3189 3188 3188 3187 3186 3186 3185 3185 3184 3184 3183 3182 3181 3180 3179 3178 3178 3177 3176 3175 3174 3173 3172 3171 3170 3169 3168 3168 3166 3165 3164 3163 3163 3162 3162 3162 3161 3161 3161 3161 3160 3160 3159 3159 3159 3158 3158 3157 3156 3156 3156 3155 3155 3154 3154 3153 3152 3151 3150 3150 3149 3149 3148 3148 3147 3147 3146 3146 3146 3145
3195 3195 3195 3195 3195 3195 3194 3194 3193 3193 3192 3192 3191 3191 3190 3190 3189 3189 3189 3188 3187 3187 3186 3186 3185 3185 3184 3184 3183 3182 3181 3180 3180 3179 3178 3177 3176 3175 3174 3173 3172 3172 3171 3170 3169 3168 3167 3166 3165 3164 3163 3162 3162 3161 3161 3161 3160 3160 3159 3159 3158 3158 3157 3157 3156 3156 3155 3154 3154 3154 3153 3152 3152 3151 3150 3149 3148 3148 3147 3147 3146 3145 3145 3145 3144 3144 3144 3143
3194 3194 3194 3194 3194 3194 3193 3193 3193 3192 3192 3191 3191 3190 3190 3189 3189 3188 3188 3187 3187 3186 3186 3185 3184 3184 3184 3183 3183 3182 3181 3180 3179 3179 3178 3177 3176 3175 3174 3173 3172 3172 3171 3170 3169 3168 3167 3166 3165 3164 3163 3163 3162 3161 3161 3160 3160 3159 3158 3158 3157 3156 3156 3156 3155 3154 3154 3153 3153 3152 3151 3151 3150 3149 3148 3148 3146 3146 3146 3145 3144 3144 3143 3143 3142 3142 3142 3141
3193 3193 3193 3193 3192 3192 3192 3192 3192 3191 3191 3190 3190 3189 3189 3188 3188 3187 3187 3187 3186 3186 3185 3184 3184 3183 3183 3183 3182 3181 3181 3179 3179 3178 3178 3177 3176 3175 3174 3173 3172 3172 3171 3170 3169 3168 3167 3166 3165 3164 3164 3163 3162 3161 3161 3160 3159 3158 3157 3156 3156 3155 3155 3154 3154 3153 3152 3152 3151 3150 3150 3149 3148 3147 3146 3145 3144 3144 3144 3143 3142 3142 3141 3141 3140 3140 3139 3139
3191 3191 3191 3191 3191 3191 3191 3191 3190 3190 3190 3189 3189 3188 3188 3187 3187 3186 3186 3185 3185 3185 3184 3184 3183 3182 3182 3181 3181 3181 3180 3179 3178 3178 3177 3176 3175 3175 3174 3173 3172 3171 3171 3170 3169 3168 3167 3166 3165 3164 3164 3163 3162 3161 3160 3160 3159 3158 3157 3156 3155 3154 3154 3153 3152 3152 3151 3150 3149 3148 3147 3147 3146 3144 3143 3142 3141 3141 3141 3140 3140 3139 3139 3138 3138 3137 3137 3136
3190 3190 3190 3190 3190 3190 3190 3190 3189 3189 3189 3188 3188 3187 3187 3186 3186 3185 3184 3184 3184 3183 3183 3183 3182 3181 3181 3180 3180 3179 3179 3178 3177 3177 3176 3175 3175 3174 3173 3172 3172 3171 3170 3169 3169 3168 3167 3166 3165 3164 3163 3162 3161 3161 3160 3159 3158 3157 3156 3155 3154 3153 3152 3152 3151 3150 3149 3148 3147 3146 3145 3145 3143 3142 3141 3139 3140 3139 3138 3138 3137 3137 3136 3135 3135 3135 3135 3134
3189 3189 3189 3189 3189 3189 3189 3189 3189 3188 3188 3187 3187 3186 3186 3185 3185 3184 3183 3183 3182 3182 3182 3181 3181 3180 3180 3179 3179 3178 3177 3177 3176 3176 3175 3174 3174 3173 3172 3172 3171 3170 3169 3169 3168 3167 3167 3166 3165 3164 3163 3162 3161 3160 3159 3158 3157 3156 3155 3154 3153 3152 3151 3151 3150 3149 3148 3147 3146 3144 3143 3143 3141 3139 3138 3137 3138 3137 3136 3136 3135 3134 3134 3133 3133 3133 3133 3132
3188 3188 3188 3188 3188 3188 3188 3188 3188 3187 3187 3186 3185 3185 3184 3184 3183 3183 3182 3181 3181 3181 3180 3180 3180 3179 3179 3178 3178 3177 3176 3175 3175 3174 3174 3173 3173 3172 3171 3171 3170 3169 3168 3167 3167 3166 3165 3165 3164 3163 3162 3161 3160 3159 3158 3157 3156 3155 3154 3153 3152 3151 3150 3149 3148 3148 3146 3146 3144 3142 3141 3141 3139 3137 3135 3135 3135 3134 3134 3133 3133 3132 3131 3131 3131 3131 3130 3130
3186 3186 3187 3187 3187 3187 3187 3187 3187 3186 3186 3185 3184 3184 3183 3182 3182 3181 3181 3180 3180 3179 3179 3178 3178 3178 3177 3177 3176 3176 3175 3174 3174 3173 3173 3172 3171 3171 3170 3169 3168 3168 3167 3166 3165 3165 3164 3163 3162 3161 3160 3159 3159 3157 3156 3156 3155 3154 3153 3152 3151 3150 3149 3148 3147 3146 3144 3144 3143 3141 3139 3138 3137 3135 3133 3133 3132 3131 3131 3130 3130 3129 3129 3129 3128 3128 3128 3127
3184 3185 3185 3185 3185 3186 3186 3186 3185 3185 3184 3184 3183 3182 3182 3181 3181 3180 3179 3179 3178 3178 3177 3177 3176 3176 3176 3175 3175 3174 3174 3173 3173 3172 3171 3171 3170 3169 3169 3168 3167 3166 3165 3165 3164 3163 3162 3162 3161 3160 3159 3158 3157 3156 3155 3154 3153 3152 3151 3150 3149 3148 3147 3146 3145 3144 3143 3142 3141 3139 3137 3135 3134 3133 3132 3130 3129 3128 3127 3127 3126 3126 3126 3125 3125 3125 3125 3124
3182 3183 3183 3183 3184 3184 3184 3184 3184 3184 3183 3182 3182 3181 3180 3179 3179 3179 3178 3177 3177 3176 3176 3175 3175 3175 3174 3174 3173 3173 3173 3172 3172 3171 3170 3169 3169 3168 3167 3167 3166 3165 3164 3163 3162 3162 3161 3160 3159 3158 3158 3157 3156 3155 3154 3153 3152 3150 3149 3148 3148 3147 3146 3144 3144 3142 3141 3140 3139 3137 3134 3132 3133 3132 3130 3128 3127 3126 3124 3123 3123 3122 3121 3121 3121 3121 3121 3120
3180 3181 3181 3182 3182 3182 3182 3182 3182 3182 3181 3181 3180 3179 3178 3178 3178 3177 3176 3176 3175 3175 3174 3174 3173 3173 3173 3173 3172 3172 3171 3171 3170 3170 3169 3168 3167 3167 3166 3165 3164 3163 3162 3161 3160 3160 3159 3158 3157 3156 3156 3155 3154 3153 3152 3151 3150 3149 3148 3147 3146 3145 3144 3143 3142 3140 3139 3138 3137 3136 3131 3128 3131 3131 3128 3127 3125 3124 3122 3121 3120 3119 3118 3117 3116 3116 3116 3116
3178 3178 3179 3179 3180 3180 3180 3180 3180 3180 3180 3179 3179 3178 3177 3176 3176 3175 3175 3174 3173 3173 3173 3172 3172 3171 3171 3171 3171 3170 3169 3169 3169 3168 3167 3167 3166 3166 3165 3164 3163 3161 3160 3159 3159 3158 3158 3157 3156 3155 3154 3153 3152 3151 3151 3149 3148 3147 3146 3145 3144 3143 3142 3141 3140 3138 3137 3135 3134 3134 3128 3124 3128 3129 3126 3125 3123 3121 3120 3119 3117 3116 3115 3113 3113 3112 3112 3111
3176 3176 3177 3177 3177 3178 3178 3178 3178 3178 3178 3177 3177 3176 3175 3174 3174 3173 3173 3172 3172 3171 3171 3170 3170 3169 3169 3169 3169 3168 3168 3167 3167 3166 3166 3165 3165 3164 3163 3162 3161 3160 3159 3157 3157 3156 3156 3155 3154 3153 3152 3151 3150 3149 3148 3147 3146 3146 3144 3143 3142 3141 3140 3139 3138 3136 3135 3133 3131 3131 3125 3121 3124 3126 3124 3122 3120 3118 3116 3115 3114 3113 3112 3110 3109 3109 3108 3107
3173 3174 3174 3174 3175 3175 3175 3175 3175 3175 3175 3175 3175 3174 3173 3172 3172 3171 3170 3170 3170 3169 3169 3168 3168 3167 3167 3167 3167 3166 3166 3166 3165 3165 3164 3164 3163 3162 3161 3160 3159 3158 3156 3155 3155 3154 3153 3153 3152 3151 3150 3149 3148 3147 3146 3145 3144 3144 3142 3141 3140 3139 3137 3136 3136 3134 3133 3131 3128 3127 3123 3118 3120 3122 3121 3119 3117 3115 3112 3111 3111 3109 3108 3107 3106 3105 3104 3104
3171 3171 3171 3172 3172 3172 3172 3173 3173 3173 3173 3172 3172 3172 3171 3170 3169 3169 3168 3168 3167 3167 3166 3165 3165 3165 3164 3165 3165 3164 3164 3164 3163 3163 3162 3162 3161 3160 3159 3158 3156 3155 3154 3153 3152 3151 3151 3151 3150 3149 3149 3147 3146 3145 3144 3142 3142 3141 3140 3139 3137 3136 3134 3133 3133 3132 3130 3128 3125 3122 3119 3115 3116 3117 3117 3116 3114 3111 3109 3108 3107 3106 3104 3103 3102 3101 3100 3100
3169 3169 3169 3170 3169 3170 3170 3170 3170 3170 3170 3170 3169 3169 3168 3167 3167 3166 3166 3165 3165 3164 3163 3163 3163 3162 3162 3162 3162 3162 3162 3161 3161 3160 3160 3159 3158 3157 3156 3155 3154 3152 3151 3150 3149 3149 3148 3148 3147 3147 3146 3145 3144 3143 3142 3140 3140 3139 3138 3136 3134 3133 3131 3129 3129 3129 3128 3125 3122 3118 3115 3112 3112 3113 3113 3112 3111 3108 3106 3105 3104 3103 3101 3100 3098 3097 3097 3095
3166 3166 3167 3167 3167 3167 3167 3167 3167 3167 3167 3167 3166 3166 3165 3164 3164 3163 3162 3162 3162 3161 3161 3160 3160 3159 3159 3160 3160 3160 3159 3159 3158 3158 3158 3157 3156 3155 3153 3152 3151 3150 3149 3148 3147 3146 3146 3145 3144 3144 3144 3143 3142 3141 3140 3138 3137 3137 3135 3133 3132 3130 3128 3127 3126 3125 3124 3121 3118 3115 3112 3109 3109 3109 3110 3109 3106 3104 3102 3101 3101 3100 3098 3097 3095 3094 3093 3092
3163 3164 3164 3164 3164 3164 3164 3164 3164 3164 3164 3164 3163 3163 3162 3161 3160 3160 3159 3159 3158 3158 3158 3157 3157 3156 3156 3157 3157 3156 3156 3156 3155 3155 3155 3154 3153 3151 3150 3149 3148 3147 3146 3145 3144 3144 3143 3142 3141 3141 3141 3140 3139 3138 3137 3136 3135 3134 3133 3131 3129 3126 3124 3125 3124 3121 3119 3115 3112 3112 3108 3105 3104 3104 3106 3105 3102 3099 3098 3097 3097 3097 3095 3093 3092 3090 3089 3089
3160 3161 3161 3161 3162 3162 3162 3162 3161 3161 3161 3160 3160 3159 3159 3158 3157 3156 3155 3156 3156 3155 3154 3154 3154 3153 3153 3154 3154 3153 3153 3152 3152 3152 3151 3150 3150 3148 3147 3146 3145 3144 3143 3143 3142 3141 3141 3138 3138 3139 3138 3137 3137 3135 3134 3133 3133 3131 3130 3128 3126 3123 3120 3122 3122 3118 3116 3111 3107 3109 3104 3099 3100 3099 3101 3101 3098 3096 3095 3094 3094 3093 3092 3089 3088 3087 3086 3086
3157 3158 3158 3158 3159 3159 3159 3159 3159 3158 3158 3157 3156 3155 3155 3154 3153 3152 3151 3150 3152 3152 3151 3151 3151 3150 3150 3151 3151 3150 3149 3149 3149 3149 3148 3147 3146 3145 3144 3143 3142 3141 3141 3140 3139 3139 3137 3135 3136 3137 3135 3134 3134 3133 3132 3130 3130 3129 3127 3125 3122 3121 3118 3117 3118 3116 3113 3108 3103 3104 3097 3091 3094 3095 3095 3096 3094 3094 3092 3091 3091 3090 3088 3086 3085 3085 3083 3082
3154 3154 3154 3155 3156 3156 3156 3156 3156 3155 3155 3154 3153 3152 3152 3151 3150 3149 3147 3144 3145 3148 3147 3147 3147 3147 3147 3148 3147 3147 3145 3146 3146 3145 3145 3143 3143 3142 3141 3140 3140 3139 3139 3138 3137 3136 3134 3133 3134 3134 3132 3132 3131 3130 3129 3127 3127 3126 3125 3122 3119 3119 3117 3113 3114 3113 3111 3107 3101 3099 3090 3082 3086 3088 3090 3091 3089 3090 3089 3087 3088 3086 3085 3084 3082 3081 3080 3079
3150 3150 3151 3151 3153 3153 3152 3152 3153 3152 3152 3151 3150 3150 3149 3147 3146 3145 3143 3139 3137 3141 3143 3143 3143 3142 3144 3144 3143 3143 3142 3142 3142 3142 3142 3140 3139 3139 3138 3138 3137 3137 3137 3135 3134 3133 3132 3132 3131 3131 3130 3129 3128 3127 3126 3124 3124 3123 3122 3120 3116 3117 3117 3112 3111 3109 3108 3106 3101 3099 3086 3071 3075 3081 3083 3086 3084 3084 3085 3084 3085 3083 3080 3080 3078 3078 3077 3074
3146 3147 3147 3148 3149 3149 3149 3149 3149 3149 3149 3148 3148 3147 3146 3144 3143 3142 3141 3135 3130 3135 3138 3137 3137 3138 3139 3140 3139 3138 3138 3138 3139 3138 3138 3137 3137 3136 3135 3136 3134 3134 3134 3133 3131 3129 3129 3130 3128 3128 3127 3127 3126 3124 3123 3122 3120 3119 3119 3118 3115 3115 3114 3111 3110 3106 3104 3102 3099 3103 3091 3066 3065 3075 3076 3080 3080 3079 3081 3080 3080 3079 3077 3077 3075 3074 3073 3070
3141 3142 3143 3144 3145 3146 3145 3144 3146 3146 3145 3145 3145 3144 3143 3141 3141 3139 3138 3131 3124 3128 3132 3131 3131 3132 3134 3134 3134 3135 3133 3134 3135 3135 3135 3135 3134 3133 3132 3132 3132 3132 3131 3130 3128 3126 3127 3127 3126 3125 3124 3123 3123 3120 3121 3120 3117 3115 3115 3116 3114 3112 3111 3109 3109 3106 3102 3099 3096 3103 3101 3072 3059 3067 3071 3074 3076 3075 3076 3076 3075 3075 3073 3073 3072 3070 3068 3067
3137 3137 3139 3140 3141 3142 3141 3140 3142 3142 3142 3142 3141 3141 3140 3139 3138 3137 3137 3129 3119 3122 3127 3127 3126 3126 3128 3129 3130 3131 3129 3130 3132 3131 3132 3132 3131 3130 3129 3129 3129 3128 3128 3128 3125 3123 3123 3123 3123 3122 3121 3120 3119 3117 3118 3118 3115 3111 3111 3112 3111 3110 3109 3107 3107 3105 3100 3096 3092 3096 3102 3081 3056 3056 3065 3068 3071 3072 3072 3072 3070 3070 3069 3068 3066 3065 3064 3062
3132 3133 3134 3135 3136 3137 3137 3137 3137 3138 3139 3139 3138 3138 3136 3136 3136 3135 3136 3128 3115 3117 3122 3122 3123 3122 3123 3125 3125 3126 3126 3127 3128 3128 3129 3129 3127 3126 3125 3125 3126 3125 3125 3124 3120 3120 3121 3119 3119 3119 3118 3116 3116 3115 3115 3115 3113 3109 3108 3109 3108 3108 3107 3105 3104 3103 3099 3094 3087 3086 3095 3085 3057 3050 3060 3063 3065 3068 3067 3067 3067 3065 3065 3063 3062 3061 3058 3057
3127 3128 3129 3130 3131 3133 3133 3133 3133 3134 3135 3134 3134 3134 3133 3134 3133 3133 3133 3123 3112 3114 3117 3118 3119 3119 3120 3121 3121 3122 3123 3124 3124 3123 3125 3124 3122 3122 3121 3122 3123 3121 3121 3118 3115 3117 3117 3115 3115 3115 3114 3113 3113 3113 3112 3112 3110 3108 3107 3106 3106 3106 3103 3103 3101 3099 3100 3092 3080 3079 3087 3082 3057 3046 3056 3058 3059 3063 3062 3063 3063 3061 3061 3059 3058 3057 3054 3052
3123 3123 3124 3125 3126 3128 3128 3129 3130 3130 3131 3130 3130 3130 3130 3130 3129 3130 3126 3114 3109 3112 3113 3113 3115 3115 3116 3117 3117 3118 3119 3119 3119 3119 3119 3119 3118 3118 3117 3118 3119 3116 3116 3114 3112 3113 3113 3111 3111 3111 3111 3110 3110 3109 3108 3109 3107 3105 3105 3103 3104 3103 3100 3101 3097 3098 3099 3085 3073 3075 3079 3078 3061 3045 3049 3053 3054 3058 3058 3058 3058 3056 3056 3055 3054 3052 3050 3048
3117 3118 3119 3120 3121 3123 3123 3125 3126 3126 3126 3126 3126 3126 3126 3125 3125 3123 3113 3105 3108 3109 3107 3109 3110 3111 3112 3112 3112 3113 3113 3113 3114 3114 3114 3114 3113 3112 3113 3114 3114 3113 3112 3109 3108 3108 3108 3106 3106 3106 3107 3107 3106 3106 3105 3105 3103 3102 3102 3102 3102 3101 3098 3097 3094 3097 3096 3078 3069 3073 3073 3074 3061 3043 3045 3050 3050 3053 3054 3053 3053 3052 3052 3051 3050 3047 3045 3045
3112 3113 3113 3115 3116 3117 3119 3120 3121 3122 3121 3121 3122 3121 3122 3121 3115 3107 3102 3104 3107 3103 3102 3106 3106 3107 3108 3107 3107 3108 3108 3108 3109 3110 3109 3109 3107 3106 3108 3109 3110 3110 3107 3104 3105 3104 3102 3101 3102 3103 3103 3104 3103 3102 3101 3100 3099 3099 3099 3101 3102 3101 3100 3096 3092 3093 3087 3073 3068 3071 3071 3065 3049 3038 3043 3047 3047 3049 3049 3049 3048 3047 3047 3046 3044 3043 3041 3041
3107 3107 3108 3110 3111 3112 3114 3115 3116 3116 3116 3117 3117 3116 3118 3114 3099 3092 3098 3103 3102 3099 3100 3103 3102 3104 3104 3102 3102 3104 3104 3104 3105 3106 3105 3103 3102 3101 3104 3104 3105 3106 3102 3101 3101 3100 3097 3095 3097 3099 3098 3098 3098 3097 3097 3095 3095 3095 3095 3097 3098 3100 3101 3095 3091 3088 3079 3068 3066 3070 3069 3054 3036 3034 3038 3040 3043 3046 3045 3044 3043 3042 3042 3041 3039 3039 3038 3037
3101 3101 3103 3104 3106 3107 3109 3111 3111 3110 3111 3112 3111 3111 3111 3100 3086 3087 3094 3096 3097 3098 3099 3100 3100 3100 3099 3098 3099 3100 3102 3101 3101 3101 3100 3098 3097 3096 3097 3098 3099 3101 3100 3099 3099 3098 3095 3089 3090 3094 3094 3093 3093 3093 3093 3092 3091 3091 3091 3093 3091 3093 3094 3089 3085 3081 3073 3065 3063 3067 3063 3043 3031 3032 3032 3034 3039 3041 3041 3040 3039 3038 3037 3036 3035 3035 3034 3033
3095 3096 3097 3098 3100 3101 3104 3106 3105 3105 3106 3105 3105 3105 3095 3082 3079 3084 3086 3089 3093 3095 3094 3096 3097 3096 3095 3094 3095 3097 3099 3098 3096 3097 3095 3093 3091 3090 3090 3092 3094 3096 3097 3097 3096 3095 3091 3084 3084 3088 3088 3089 3089 3088 3089 3088 3088 3087 3088 3088 3085 3085 3086 3084 3081 3076 3073 3070 3060 3055 3047 3032 3029 3029 3027 3032 3035 3035 3037 3035 3035 3035 3033 3032 3031 3030 3030 3028
3089 3090 3091 3092 3094 3096 3099 3100 3099 3099 3099 3099 3099 3091 3076 3071 3076 3079 3080 3084 3088 3089 3091 3092 3091 3091 3090 3089 3090 3092 3094 3094 3092 3092 3090 3088 3086 3084 3084 3086 3089 3091 3091 3092 3092 3091 3087 3081 3081 3083 3083 3085 3085 3084 3084 3083 3083 3083 3081 3080 3079 3081 3083 3082 3080 3074 3076 3073 3054 3041 3034 3025 3026 3024 3020 3028 3030 3030 3032 3030 3031 3031 3028 3028 3027 3026 3026 3023
3084 3085 3085 3086 3088 3091 3093 3094 3094 3093 3093 3093 3088 3074 3065 3068 3072 3074 3076 3079 3082 3085 3088 3086 3084 3085 3084 3082 3083 3086 3090 3089 3087 3086 3085 3084 3080 3076 3077 3081 3084 3085 3086 3087 3087 3087 3085 3080 3078 3079 3079 3080 3080 3079 3079 3078 3079 3077 3075 3075 3077 3080 3080 3080 3080 3075 3076 3073 3052 3034 3028 3022 3022 3019 3015 3021 3025 3024 3026 3025 3027 3026 3024 3023 3022 3021 3020 3018
3080 3079 3078 3080 3084 3086 3088 3089 3088 3087 3087 3085 3075 3064 3062 3064 3066 3070 3072 3072 3076 3080 3081 3079 3078 3078 3077 3076 3077 3080 3084 3083 3081 3081 3080 3078 3073 3069 3072 3076 3078 3080 3082 3084 3083 3083 3083 3079 3076 3076 3076 3076 3074 3073 3073 3073 3073 3071 3070 3073 3074 3075 3075 3075 3077 3073 3071 3071 3052 3032 3024 3015 3013 3015 3014 3017 3020 3019 3020 3021 3022 3022 3019 3018 3017 3016 3014 3012
3074 3071 3069 3075 3079 3079 3081 3082 3082 3082 3080 3072 3063 3058 3058 3058 3060 3064 3066 3068 3071 3073 3072 3070 3072 3072 3070 3070 3072 3074 3075 3074 3074 3074 3072 3071 3067 3064 3068 3071 3073 3075 3077 3079 3078 3077 3079 3078 3074 3073 3071 3071 3068 3066 3065 3064 3066 3067 3067 3069 3069 3069 3069 3068 3070 3066 3063 3063 3051 3036 3024 3005 3000 3009 3012 3013 3014 3013 3015 3017 3018 3017 3014 3013 3012 3010 3009 3007
3067 3064 3061 3067 3071 3071 3074 3077 3076 3074 3067 3059 3056 3054 3053 3054 3056 3059 3061 3063 3065 3065 3064 3064 3066 3066 3064 3065 3067 3067 3068 3066 3067 3067 3066 3065 3062 3061 3064 3066 3068 3070 3072 3073 3072 3072 3075 3074 3072 3069 3066 3063 3058 3055 3055 3055 3059 3062 3062 3063 3062 3063 3065 3064 3063 3059 3058 3058 3051 3043 3028 2999 2991 3005 3008 3007 3009 3008 3009 3013 3012 3011 3009 3008 3007 3005 3003 3002
3060 3056 3053 3058 3062 3064 3068 3068 3066 3063 3057 3052 3051 3050 3049 3051 3053 3055 3056 3058 3058 3058 3058 3059 3060 3060 3060 3060 3060 3061 3062 3061 3061 3062 3059 3057 3057 3057 3058 3060 3063 3066 3067 3067 3067 3067 3068 3067 3066 3063 3058 3052 3048 3048 3050 3052 3055 3056 3056 3056 3054 3056 3060 3060 3058 3052 3051 3051 3043 3042 3031 2997 2985 3000 3003 3002 3005 3002 3004 3007 3006 3005 3003 3002 3001 2999 2997 2996
3052 3047 3047 3051 3053 3056 3058 3057 3057 3055 3048 3044 3045 3046 3048 3049 3048 3049 3051 3052 3052 3052 3053 3053 3053 3054 3054 3054 3054 3056 3058 3056 3055 3054 3051 3051 3052 3052 3054 3058 3059 3060 3062 3062 3062 3062 3063 3062 3060 3056 3051 3046 3044 3046 3048 3048 3051 3052 3051 3050 3049 3052 3052 3049 3047 3041 3042 3042 3034 3038 3032 2995 2980 2994 2997 2996 3000 2998 2999 3001 2999 2999 2998 2996 2995 2993 2991 2990
3042 3040 3042 3044 3044 3047 3048 3048 3048 3045 3039 3039 3042 3043 3044 3044 3043 3043 3045 3045 3045 3046 3047 3045 3045 3047 3048 3049 3050 3051 3052 3050 3048 3046 3046 3046 3045 3047 3052 3054 3054 3056 3058 3057 3057 3059 3059 3058 3054 3050 3046 3044 3042 3042 3043 3044 3047 3047 3044 3043 3043 3042 3040 3038 3036 3034 3035 3033 3028 3037 3029 2990 2976 2989 2991 2991 2995 2994 2994 2995 2994 2994 2992 2991 2990 2988 2986 2984
3036 3036 3036 3035 3036 3037 3035 3033 3034 3033 3033 3036 3037 3036 3038 3037 3037 3037 3038 3038 3039 3038 3038 3037 3038 3041 3043 3045 3047 3046 3047 3045 3041 3040 3042 3042 3039 3042 3046 3048 3049 3052 3052 3051 3052 3054 3053 3051 3050 3048 3045 3042 3038 3037 3037 3037 3039 3038 3035 3036 3035 3034 3035 3034 3032 3032 3030 3021 3022 3032 3014 2979 2976 2988 2987 2988 2991 2990 2991 2990 2988 2988 2987 2985 2985 2982 2981 2979
3031 3028 3026 3027 3027 3025 3022 3023 3025 3026 3028 3030 3029 3029 3031 3030 3030 3031 3032 3032 3033 3032 3031 3032 3034 3036 3038 3041 3041 3041 3041 3040 3038 3038 3038 3035 3033 3036 3039 3042 3044 3045 3046 3047 3049 3048 3046 3044 3044 3041 3037 3034 3029 3026 3027 3027 3029 3029 3028 3029 3030 3029 3030 3028 3026 3027 3020 3012 3018 3016 2990 2972 2980 2985 2982 2985 2987 2985 2986 2985 2982 2982 2980 2980 2979 2977 2975 2973
3022 3017 3018 3020 3019 3015 3014 3017 3020 3018 3020 3023 3022 3022 3023 3022 3023 3026 3027 3026 3026 3027 3027 3027 3030 3032 3033 3034 3034 3033 3033 3034 3035 3034 3031 3028 3028 3030 3033 3036 3038 3040 3041 3043 3044 3043 3040 3036 3034 3029 3023 3020 3018 3017 3020 3022 3023 3022 3022 3024 3024 3022 3023 3022 3019 3014 3010 3009 3008 2994 2978 2979 2980 2974 2977 2984 2983 2981 2980 2978 2977 2976 2974 2974 2973 2971 2969 2967
3011 3006 3008 3012 3012 3008 3007 3009 3010 3009 3011 3015 3015 3015 3015 3015 3017 3019 3019 3018 3019 3022 3023 3023 3025 3026 3025 3026 3028 3027 3028 3031 3031 3027 3023 3023 3026 3027 3029 3030 3032 3034 3035 3036 3037 3036 3033 3028 3024 3021 3016 3015 3015 3016 3019 3019 3017 3017 3018 3018 3017 3016 3018 3015 3007 3002 3005 3006 2993 2978 2981 2985 2970 2963 2975 2982 2979 2977 2975 2973 2972 2970 2969 2968 2966 2965 2963 2961
3002 2998 2999 3002 3002 2999 2997 2998 3000 3001 3005 3007 3006 3007 3009 3009 3010 3009 3008 3011 3013 3015 3017 3016 3016 3016 3017 3022 3024 3024 3025 3027 3023 3018 3017 3020 3023 3023 3024 3026 3027 3028 3029 3030 3030 3029 3025 3020 3017 3016 3013 3012 3013 3013 3014 3014 3013 3013 3013 3011 3009 3009 3009 3005 2999 2995 2997 2994 2979 2974 2983 2978 2959 2960 2975 2976 2973 2974 2971 2968 2967 2964 2963 2962 2960 2959 2957 2955
2995 2993 2994 2993 2989 2989 2990 2992 2996 2996 2997 2999 2998 2999 3001 3001 3000 3000 3002 3005 3004 3005 3008 3007 3006 3008 3012 3017 3019 3018 3019 3017 3012 3011 3014 3016 3018 3018 3019 3020 3022 3023 3024 3024 3023 3022 3018 3012 3012 3013 3010 3007 3008 3007 3009 3011 3008 3007 3007 3004 3000 3000 3001 2999 2992 2987 2987 2984 2976 2974 2976 2965 2952 2959 2970 2969 2968 2969 2966 2963 2961 2958 2957 2956 2954 2953 2950 2949
2987 2986 2989 2986 2981 2983 2986 2988 2990 2988 2988 2992 2991 2990 2993 2992 2993 2996 2997 2997 2996 2997 2998 2997 2998 3003 3006 3009 3011 3009 3007 3007 3006 3009 3012 3012 3013 3015 3015 3015 3017 3019 3019 3017 3016 3016 3013 3007 3009 3011 3005 3000 3000 3000 3004 3005 3002 3002 3002 2995 2990 2994 2995 2989 2980 2977 2981 2978 2971 2970 2967 2952 2945 2955 2963 2962 2962 2963 2960 2957 2954 2953 2952 2950 2948 2946 2944 2944
2984 2982 2984 2980 2973 2976 2979 2980 2981 2980 2979 2981 2981 2981 2983 2983 2986 2991 2989 2988 2991 2991 2990 2991 2995 2999 3000 3001 3002 2998 2997 3001 3003 3006 3009 3009 3009 3011 3011 3011 3014 3014 3012 3011 3010 3010 3009 3005 3005 3007 3000 2992 2992 2995 2996 2996 2997 2998 2990 2977 2979 2987 2983 2974 2970 2972 2973 2968 2965 2966 2958 2942 2940 2951 2957 2955 2955 2955 2952 2949 2948 2947 2946 2944 2941 2939 2938 2937
2983 2978 2978 2974 2967 2967 2971 2973 2974 2971 2968 2970 2971 2972 2974 2975 2981 2986 2983 2981 2984 2985 2986 2988 2991 2993 2993 2991 2990 2989 2993 2997 2998 3000 3003 3003 3003 3005 3005 3006 3009 3008 3006 3006 3004 3003 3003 3000 2999 3001 2993 2985 2988 2990 2988 2992 2994 2983 2966 2961 2970 2976 2969 2964 2967 2967 2963 2960 2960 2955 2943 2936 2943 2950 2950 2947 2947 2946 2943 2942 2941 2939 2938 2936 2933 2931 2930 2930